Probability
0 0 0 0 0 0 0 0 0 0 0 0 0 0 0 0 0 0 0 0 0 0 0 0 0 0 0 0 0 0 0 0 0 0 0 0 0 0
0 0 0 0 0 0 0 0 0 0 0 0 0 0 0 0 0 0 0 0 0 0 0 0 0 0 0 0 0 0 0 0 0 0 0 0 0 0
0 0 0 0 0 0 0 0 0 0 0 0 0 0 0 0 0 0 0 0 0 0 0 0 0 0 0 0 0 0 0 0 0 0 0 0 0 0
0 0 0 0 0 0 0 0 0 0 0 0 0 0 0 0 0 0 0 0 0 0 0 0 0 0 0 0 0 0 0 0 0 0 0 0 0 0
0 0 0 0 0 0 0 0 0 0 0 0 0 0 0 0 0 0 0 0 0 0 0 0 0 0 0 0 0 0 0 0 0 0 0 0 0 0
0 0 0 0 0 0 0 0 0 0 0 0 0 0 0 0 0 0 0 0 0 0 0 0 0 0 0 0 0 0 0 0 0 0 0 0 0 0
0 0 0 0 0 0 0 0 0 0 0 0 0 0 0 0 0 0 0 0 0 0 0 0 0 0 0 0 0 0 0 0 0 0 0 0 0 0
0 0 0 0 0 0 0 0 0 0 0 0 0 0 0 0 0 0 0 0 0 0 0 0 0 0 0 0 0 0 0 0 0 0 0 0 0 0
0 0 0 0 0 0 0 0 0 0 0 0 0 0 0 0 0 0 0 0 0 0 0 0 0 0 0 0 0 0 0 0 0 0 0 0 0 0
0 0 0 0 0 0 0 0 0 0 0 0 0 0 0 0 0 0 0 0 0 0 0 0 0 0 0 0 0 0 0 0 0 0 0 0 0 0
0 0 0 0 0 0 0 0 0 0 0 0 0 0 0 0 0 0 0 0 0 0 0 0 0 0 0 0 0 0 0 0 0 0 0 0 0 0
0 0 0 0 0 0 0 0 0 0 0 0 0 0 0 0 0 0 0 0 0 0 0 0 0 0 0 0 0 0 0 0 0 0 0 0 0 0
0 0 0 0 0 0 0 0 0 0 0 0 0 0 0 0 0 0 0 0 0 0 0 0 0 0 0 0 0 0 0 0 0 0 0 0 0 0
0 0 0 0 0 0 0 0 0 0 0 0 0 0 0 0 0 0 0 0 0 0 0 0 0 0 0 0 0 0 0 0 0 0 0 0 0 0
0 0 0 0 0 0 0 0 0 0 0 0 0 0 0 0 0 0 0 0 0 0 0 0 0 0 0 0 0 0 0 0 0 0 0 0 0 0
0 0 0 0 0 0 0 0 0 0 0 0 0 0 0 0 0 0 0 0 0 0 0 0 0 0 0 0 0 0 0 0 0 0 0 0 0 0
0 0 0 0 0 0 0 0 0 0 0 0 0 0 0 0 0 0 0 0 0 0 0 0 0 0 0 0 0 0 0 0 0 0 0 0 0 0
0 0 0 0 0 0 0 0 0 0 0 0 0 0 0 0 0 0 0 0 0 0 0 0 0 0 0 0 0 0 0 0 0 0 0 0 0 0
0 0 0 0 0 0 0 0 0 0 0 0 0 0 0 0 0 0 0 0 0 0 0 0 0 0 0 0 0 0 0 0 0 0 0 0 0 0
0 0 0 0 0 0 0 0 0 0 0 0 0 0 0 0 0 0 0 0 0 0 0 0 0 0 0 0 0 0 0 0 0 0 0 0 0 0
0 0 0 0 0 0 0 0 0 0 0 0 0 0 0 0 0 0 0 0 0 0 0 0 0 0 0 0 0 0 0 0 0 0 0 0 0 0
0 0 0 0 0 0 0 0 0 0 0 0 0 0 0 0 0 0 0 0 0 0 0 0 0 0 0 0 0 0 0 0 0 0 0 0 0 0
0 0 0 0 0 0 0 0 0 0 0 0 0 0 0 0 0 0 0 0 0 0 0 0 0 0 0 0 0 0 0 0 0 0 0 0 0 0
Height
5846 5845 5845 5845 5845 5845 5844 5844 5844 5843 5843 5842 5842 5841 5840 5840 5839 5838 5837 5836 5835 5834 5834 5833 5832 5831 5830 5829 5828 5827 5826 5825 5824 5823 5822 5820 5818 5816
5844 5844 5844 5844 5844 5843 5843 5843 5842 5842 5841 5840 5840 5839 5839 5838 5837 5836 5835 5834 5833 5832 5831 5830 5829 5828 5827 5826 5825 5824 5823 5822 5821 5819 5818 5816 5814 5812
5843 5843 5843 5843 5843 5842 5842 5842 5841 5841 5840 5839 5838 5838 5837 5836 5835 5834 5833 5832 5831 5830 5829 5827 5826 5825 5824 5823 5822 5820 5819 5818 5816 5815 5813 5811 5809 5808
5842 5842 5842 5841 5841 5841 5841 5841 5840 5839 5838 5838 5837 5836 5835 5834 5833 5832 5830 5829 5828 5827 5826 5824 5823 5822 5820 5819 5817 5816 5815 5813 5812 5810 5808 5806 5805 5802
5841 5841 5840 5840 5840 5840 5840 5839 5838 5838 5837 5836 5835 5834 5833 5832 5830 5829 5828 5826 5825 5824 5822 5821 5820 5818 5817 5815 5813 5812 5810 5808 5807 5805 5803 5801 5799 5797
5839 5839 5839 5838 5838 5838 5838 5837 5836 5836 5835 5834 5833 5831 5830 5829 5827 5826 5825 5823 5822 5821 5819 5818 5816 5815 5813 5811 5809 5808 5806 5804 5801 5799 5797 5795 5793 5790
5837 5837 5837 5836 5836 5836 5835 5835 5834 5833 5832 5831 5830 5829 5827 5826 5825 5823 5822 5820 5819 5817 5816 5814 5812 5810 5808 5807 5805 5803 5801 5798 5796 5794 5792 5789 5787 5784
5835 5835 5834 5834 5834 5833 5833 5832 5831 5830 5829 5828 5827 5826 5824 5823 5821 5820 5818 5816 5815 5813 5811 5809 5807 5806 5803 5801 5799 5797 5795 5792 5790 5788 5785 5782 5780 5777
5833 5832 5832 5831 5831 5830 5830 5829 5828 5827 5826 5825 5824 5822 5821 5819 5818 5816 5814 5812 5811 5809 5806 5804 5802 5800 5798 5795 5793 5790 5788 5785 5783 5780 5778 5775 5772 5769
5830 5829 5829 5828 5828 5827 5827 5826 5825 5824 5822 5821 5820 5819 5817 5815 5813 5811 5809 5807 5806 5803 5801 5799 5796 5794 5791 5789 5786 5784 5781 5779 5776 5772 5769 5766 5763 5760
5826 5826 5825 5825 5824 5824 5823 5822 5821 5820 5818 5817 5816 5814 5812 5810 5808 5806 5804 5802 5800 5798 5795 5793 5790 5788 5785 5782 5779 5776 5773 5770 5767 5764 5761 5757 5754 5751
5823 5822 5822 5821 5820 5819 5819 5818 5817 5815 5814 5813 5811 5809 5807 5805 5803 5801 5798 5796 5793 5791 5788 5786 5783 5780 5778 5775 5771 5768 5765 5761 5758 5755 5751 5747 5744 5740
5819 5818 5817 5816 5816 5815 5814 5813 5812 5811 5809 5807 5806 5804 5801 5799 5797 5794 5792 5789 5787 5784 5781 5779 5776 5772 5769 5766 5763 5759 5756 5752 5748 5744 5740 5737 5733 5729
5814 5813 5813 5812 5811 5810 5809 5808 5807 5805 5804 5802 5800 5798 5795 5793 5790 5788 5785 5782 5779 5776 5773 5770 5767 5764 5761 5757 5754 5750 5746 5742 5738 5734 5730 5726 5722 5718
5809 5808 5807 5807 5806 5805 5804 5803 5801 5799 5798 5796 5794 5791 5789 5786 5783 5780 5777 5774 5771 5768 5765 5761 5758 5755 5752 5748 5745 5741 5737 5732 5728 5724 5720 5715 5711 5706
5803 5802 5802 5801 5800 5799 5798 5796 5795 5793 5791 5789 5787 5784 5781 5778 5775 5772 5769 5766 5763 5760 5757 5753 5749 5746 5743 5739 5735 5731 5726 5722 5718 5713 5709 5704 5699 5694
5797 5796 5796 5795 5794 5792 5791 5790 5788 5786 5784 5782 5780 5777 5774 5771 5768 5764 5761 5758 5755 5752 5748 5744 5740 5737 5733 5729 5725 5721 5716 5711 5707 5702 5698 5693 5687 5682
5791 5790 5789 5788 5787 5785 5784 5782 5781 5779 5777 5774 5772 5769 5766 5763 5760 5756 5753 5750 5746 5743 5739 5736 5732 5728 5724 5719 5715 5710 5706 5701 5696 5691 5686 5681 5676 5670
5784 5783 5782 5781 5780 5778 5776 5775 5773 5771 5769 5766 5764 5761 5758 5754 5751 5748 5745 5741 5738 5734 5730 5726 5722 5718 5714 5710 5705 5699 5695 5690 5685 5679 5674 5668 5663 5658
5777 5776 5775 5773 5772 5770 5769 5767 5765 5763 5760 5758 5755 5752 5749 5746 5743 5740 5736 5733 5729 5725 5720 5716 5712 5707 5703 5699 5694 5689 5683 5677 5672 5667 5662 5656 5650 5645
5769 5768 5767 5766 5764 5763 5761 5759 5757 5754 5752 5750 5747 5744 5741 5738 5734 5731 5727 5723 5719 5715 5710 5706 5701 5696 5691 5687 5682 5677 5671 5665 5660 5655 5649 5644 5639 5633
5762 5761 5760 5758 5757 5755 5753 5751 5749 5747 5744 5742 5739 5736 5732 5729 5726 5722 5718 5713 5709 5704 5700 5695 5690 5685 5680 5675 5670 5665 5659 5654 5648 5642 5636 5631 5626 5621
5754 5753 5752 5750 5749 5747 5745 5743 5741 5738 5736 5733 5730 5727 5724 5720 5716 5712 5708 5703 5698 5693 5689 5684 5679 5674 5668 5663 5658 5653 5648 5642 5637 5631 5625 5619 5614 5608
Wind_Speed
3 3 4 5 5 5 5 5 5 5 6 7 7 7 7 7 7 7 8 9 9 9 9 10 11 11 12 12 12 13 13 14 15 15 15 15 16 16
4 5 5 5 5 5 5 5 5 5 6 6 7 6 7 8 8 9 9 10 10 10 11 11 12 12 13 13 13 14 15 15 16 16 17 17 17 18
5 5 5 5 5 5 5 5 6 6 7 7 7 7 8 9 9 9 10 11 11 12 12 13 13 14 15 15 15 15 15 16 17 18 18 19 19 20
5 5 5 5 6 6 6 7 7 8 8 8 8 8 9 9 10 11 11 12 13 13 13 14 15 15 16 16 16 16 17 17 18 19 19 20 20 21
6 6 6 6 7 7 7 7 8 9 9 9 9 10 10 11 12 13 13 13 13 14 15 15 15 16 16 17 17 18 18 19 20 20 21 21 21 22
7 7 7 7 7 8 8 8 9 10 10 11 11 12 12 13 13 14 14 14 14 14 15 16 16 17 17 18 19 20 20 21 21 22 22 22 23 23
8 8 9 9 9 9 10 10 11 11 11 12 12 13 13 14 14 15 15 15 16 16 17 17 18 18 19 20 20 21 22 23 23 24 24 25 25 26
10 10 10 10 11 11 12 12 12 12 12 13 13 13 13 14 15 15 16 16 17 17 18 19 20 20 21 22 22 23 24 24 25 26 26 27 28 28
11 11 12 11 12 13 13 13 13 13 14 14 14 14 15 16 16 17 18 18 19 19 20 21 22 23 23 24 24 25 25 26 27 28 29 29 29 30
12 12 12 13 13 13 14 14 14 15 15 15 16 17 17 18 19 19 20 21 21 21 22 23 24 25 26 26 27 27 28 28 29 30 31 31 32 33
14 14 14 14 15 15 15 15 16 16 17 17 18 19 20 20 21 22 22 23 23 24 24 25 25 26 28 29 29 30 30 31 32 33 34 34 35 36
15 15 16 16 16 16 17 17 17 18 19 19 20 21 22 22 23 23 24 25 25 26 26 27 28 29 29 30 31 32 33 34 35 35 36 36 37 37
16 16 17 17 18 18 18 18 19 19 20 20 21 22 24 24 25 25 26 26 26 27 28 28 29 30 31 31 32 33 34 35 36 37 37 38 38 38
18 18 18 18 18 19 19 20 21 21 22 23 24 25 25 26 26 26 27 28 28 29 29 30 30 31 31 32 33 34 35 36 36 37 38 38 38 39
19 19 19 20 20 20 21 22 22 23 23 24 25 26 27 27 27 28 29 29 29 30 30 31 31 32 32 33 34 35 35 36 37 38 38 38 39 40
20 20 21 21 21 22 22 23 23 24 24 25 26 27 27 28 28 29 29 30 30 30 32 32 33 33 33 34 35 35 37 37 38 39 39 39 40 41
22 22 22 22 22 23 24 24 24 25 26 27 28 28 29 29 30 30 30 31 31 32 33 34 35 34 35 35 36 37 37 38 39 39 40 40 41 41
23 23 23 24 24 24 24 25 26 27 28 28 29 29 30 30 30 31 31 32 32 33 34 34 35 35 36 37 37 38 38 39 40 41 42 41 41 42
23 23 24 24 25 25 25 26 27 28 28 28 29 29 30 30 31 31 32 32 33 34 35 36 36 37 37 37 38 39 40 41 42 43 43 43 43 44
24 24 24 24 25 26 26 26 27 28 28 28 28 29 30 30 31 32 32 33 34 35 36 37 38 38 39 39 39 40 42 43 43 43 43 43 44 44
25 25 25 25 25 26 26 27 27 27 27 28 28 29 30 31 32 33 34 35 36 36 37 38 39 39 40 41 41 41 42 43 43 43 43 43 43 43
25 25 26 27 27 27 27 28 28 28 28 29 30 31 32 32 34 35 36 37 37 38 38 39 40 41 41 41 41 41 41 42 43 44 44 44 44 42
25 25 26 27 28 28 28 28 29 29 30 31 31 33 34 35 36 37 37 38 39 39 39 40 40 41 42 42 41 41 42 42 42 43 44 44 44 44
Wind_Direction
254 257 270 280 286 290 300 303 302 301 299 296 296 295 298 304 305 303 301 299 296 295 296 297 300 302 302 301 298 298 299 300 301 302 302 302 301 301
263 269 276 282 285 291 300 303 306 308 308 303 298 300 302 305 305 307 306 305 304 298 297 297 299 301 302 302 300 301 301 300 300 301 301 302 302 303
269 273 279 284 280 282 292 299 306 310 313 308 304 303 304 307 311 309 307 307 305 301 299 299 299 300 302 301 300 299 299 299 299 299 298 299 300 300
271 272 276 281 283 281 286 294 302 307 311 308 305 308 309 310 310 308 306 307 304 303 301 302 302 301 302 300 299 298 298 298 298 297 297 298 299 300
273 271 273 278 279 281 284 290 297 302 306 307 306 307 306 306 308 307 304 304 304 302 301 301 300 300 300 300 298 297 297 297 296 296 297 297 297 298
271 272 275 277 278 281 285 289 294 297 299 303 305 304 304 304 304 305 304 303 303 304 304 302 301 303 299 300 298 298 301 301 298 299 299 299 298 298
275 280 281 278 279 280 283 287 291 293 295 298 301 303 304 304 306 305 305 303 301 302 303 303 303 302 302 302 300 301 302 302 301 300 301 301 299 299
278 278 279 280 280 281 285 288 290 294 296 297 299 302 304 306 306 307 306 304 302 303 304 304 303 303 303 303 302 302 301 301 300 300 300 299 298 298
277 279 278 280 283 285 290 292 292 294 296 297 298 299 301 303 304 305 304 302 301 302 302 303 303 303 303 303 302 305 305 304 303 302 301 300 299 299
280 281 280 282 282 285 288 291 292 293 294 295 296 298 300 301 302 302 302 300 300 300 300 301 302 302 303 303 303 303 303 303 303 302 302 301 300 301
279 281 280 281 282 284 288 291 291 291 293 294 294 296 298 299 300 300 300 300 299 298 298 299 300 301 302 302 302 301 302 302 302 302 301 301 300 300
279 280 283 282 282 283 286 290 292 293 295 296 296 296 299 300 300 300 300 300 300 299 299 299 300 300 300 300 300 300 301 301 302 302 302 301 300 300
280 281 283 284 283 283 286 290 292 294 297 297 298 299 300 301 302 301 301 301 301 300 300 300 300 301 300 300 300 301 302 302 302 302 302 301 300 299
279 282 283 285 284 284 287 290 292 293 295 297 298 300 301 301 301 301 301 301 301 301 301 301 301 302 301 301 301 302 302 303 303 303 302 302 301 300
279 281 282 283 285 285 285 288 290 292 294 296 299 301 301 301 301 301 300 300 301 301 302 302 303 303 303 303 303 303 303 303 304 304 304 303 302 301
276 280 281 282 283 284 285 287 289 291 293 296 299 301 302 303 303 302 301 301 301 302 302 302 303 303 304 304 305 304 304 304 304 305 305 304 302 302
275 278 280 281 283 284 286 287 288 291 294 297 298 300 302 303 302 302 303 302 302 302 302 302 303 304 305 305 305 305 306 305 306 305 305 305 305 304
276 278 280 281 283 285 286 287 288 290 293 296 298 299 301 302 302 303 303 303 303 303 303 303 303 302 304 305 305 305 305 306 306 306 306 305 305 304
277 278 280 282 283 286 288 289 289 291 293 295 298 300 302 302 303 304 304 304 304 304 304 304 303 303 303 303 304 304 305 306 306 306 306 305 304 304
277 279 281 284 285 287 288 289 290 291 294 296 299 302 303 304 304 304 304 305 305 305 305 304 304 304 304 304 304 304 305 306 306 306 306 306 305 305
277 280 282 284 287 289 290 292 293 294 297 300 301 303 304 304 305 305 305 305 305 305 305 304 304 304 305 305 306 306 306 307 307 308 308 307 307 307
278 279 282 285 287 290 292 293 295 296 298 300 301 302 303 303 304 304 304 304 305 305 305 304 304 305 306 306 306 307 307 307 308 309 309 309 309 308
279 282 284 286 289 290 293 295 296 296 298 299 300 301 302 302 303 304 304 304 305 305 305 304 305 305 306 306 306 307 307 307 307 309 311 311 310 309